This is the latest recevied weather packets stored in our database for station/object OK3MS-5. If no packets are shown the sender has not sent any weather packets the latest 1 day(s).
| Time | Temp. | Humidity | Pressure | Rain* | Wind** | Luminosity | Snow |
|---|---|---|---|---|---|---|---|
| 1777980007 | 25.56° C | 32% | 1002.7 hPa | 0 mm | 2.24 m/s, 182° | 620 W/m² | - |
| 1777979707 | 26.11° C | 32% | 1002.6 hPa | 0 mm | 0.89 m/s, 186° | 782 W/m² | - |
| 1777979402 | 26.11° C | 33% | 1002.8 hPa | 0 mm | 0.45 m/s, 166° | 789 W/m² | - |
| 1777979107 | 25.56° C | 32% | 1002.9 hPa | 0 mm | 0.89 m/s, 222° | 210 W/m² | - |
| 1777978805 | 25° C | 32% | 1003 hPa | 0 mm | 3.13 m/s, 125° | 780 W/m² | - |
| 1777978504 | 24.44° C | 32% | 1003.2 hPa | 0 mm | 0 m/s | 776 W/m² | - |
| 1777978204 | 25.56° C | 32% | 1003.1 hPa | 0 mm | 1.79 m/s, 203° | 764 W/m² | - |
| 1777977903 | 25.56° C | 33% | 1003.1 hPa | 0 mm | 0 m/s | 769 W/m² | - |
| 1777977601 | 25.56° C | 31% | 1003.2 hPa | 0 mm | 0 m/s | 763 W/m² | - |
| 1777977302 | 25.56° C | 35% | 1003.2 hPa | 0 mm | 0.45 m/s, 162° | 751 W/m² | - |
| 1777977003 | 25° C | 35% | 1003.4 hPa | 0 mm | 0.45 m/s, 162° | 752 W/m² | - |
| 1777976705 | 25° C | 35% | 1003.6 hPa | 0 mm | 0.89 m/s, 162° | 748 W/m² | - |
| 1777976114 | 25° C | 37% | 1003.6 hPa | 0 mm | 0 m/s | 735 W/m² | - |
| 1777975804 | 24.44° C | 36% | 1003.8 hPa | 0 mm | 0 m/s | 725 W/m² | - |
| 1777975504 | 23.89° C | 38% | 1003.9 hPa | 0 mm | 0.89 m/s, 198° | 718 W/m² | - |
| 1777975203 | 24.44° C | 37% | 1003.8 hPa | 0 mm | 0 m/s | 718 W/m² | - |
| 1777974907 | 24.44° C | 37% | 1003.9 hPa | 0 mm | 1.34 m/s, 179° | 718 W/m² | - |
| 1777974604 | 24.44° C | 37% | 1003.9 hPa | 0 mm | 0.89 m/s, 179° | 714 W/m² | - |
| 1777974308 | 23.89° C | 37% | 1004.1 hPa | 0 mm | 0.45 m/s, 216° | 693 W/m² | - |
| 1777974003 | 23.33° C | 40% | 1004.3 hPa | 0 mm | 0 m/s | 690 W/m² | - |
| 1777973708 | 23.33° C | 38% | 1004.4 hPa | 0 mm | 0 m/s | 659 W/m² | - |
| 1777973404 | 22.78° C | 39% | 1004.4 hPa | 0 mm | 0.45 m/s, 254° | 701 W/m² | - |
| 1777973104 | 23.33° C | 39% | 1004.4 hPa | 0 mm | 0.45 m/s, 180° | 688 W/m² | - |
| 1777972804 | 23.33° C | 39% | 1004.4 hPa | 0 mm | 1.34 m/s, 180° | 664 W/m² | - |
| 1777972504 | 22.78° C | 39% | 1004.5 hPa | 0 mm | 0 m/s | 658 W/m² | - |
* Rain latest hour (hover to see other rain measurements)
** Current wind speed in m/s (hover to see current wind gust speed)